Simultaneous Nadir Overpasses (SNOs) Predictions

Prediction of SNOs between GOES-15 and METOP-A Satellite Orbit:

Table of predicted SNOs for the next 14.0 days since TLE Epoch: 4/24/2020
Index Date Time (GOES-15) GOES-15 Lat,Lon METOP-A Lat,Lon Distance(km) Time Diff (sec)
1 04/25/2020 05:02:17 -0.25,-128.11 0.50,-124.85 372.27 80
2 04/26/2020 17:23:48 0.25,-128.18 0.53,-129.44 143.36 80
3 04/27/2020 17:00:29 0.24,-128.20 -0.57,-124.46 425.52 80
4 04/29/2020 05:22:09 -0.24,-128.18 -0.47,-129.08 104.12 80
5 04/30/2020 04:58:50 -0.24,-128.19 0.64,-124.10 464.22 80
6 05/01/2020 17:17:42 0.24,-128.24 0.33,-128.71 52.87 80
7 05/04/2020 05:18:43 -0.24,-128.22 -0.26,-128.35 14.64 80
8 05/06/2020 17:16:55 0.24,-128.28 0.18,-127.96 35.43 80
9 05/08/2020 05:35:55 -0.24,-128.25 -1.21,-132.59 495.08 80




NCC Satellite Simultaneous Nadir Overpasses (SNOs) Prediction Service
